Location: Unspecified
(0.0000°N, 0.0000°E)
Time: 13:39:52
(UTC+00:00)

Hubble Space Telescope - Visible Passes

Search period start: 16 April 2024 00:00
Search period end: 26 April 2024 00:00
Orbit: 514 x 517 km, 28.5° (Epoch: 15 April)

Date Brightness Start Highest point End Pass type
(mag) Time Alt. Az. Time Alt. Az. Time Alt. Az.
23 Apr 3.0 19:40:25 10° NNW 19:41:53 16° N 19:41:53 16° N visible
24 Apr 2.2 19:21:57 10° NNW 19:24:56 23° NNE 19:24:56 23° NNE visible
25 Apr 1.9 19:03:32 10° NNW 19:07:01 28° NNE 19:08:00 25° ENE visible
